Location: Albany
(35.0170°S, 117.8920°E)
Time: 21:43:50
(UTC+08:00)

A-11 Canister half - Pass Details

Date: 24 January 2021
Orbit: 1525 x 1684 km, 47.3° (Epoch: 03 March)

Event Time Altitude Azimuth Distance (km) Brightness Sun altitude
Rises 07:55:55 0° 238° (WSW) 4,881 11.2 30.1°
Reaches altitude 10° 07:59:11 10° 234° (SW) 3,872 10.8 30.8°
Maximum altitude 08:08:56 61° 154° (SSE) 1,769 10.1 32.8°
Drops below altitude 10° 08:18:18 10° 74° (ENE) 3,735 12.3 34.7°
Sets 08:21:23 0° 70° (ENE) 4,699 12.4 35.3°
